| time (UTC) | temp F | wind direction | speed knots | gust knots | rain 1hr in | rain 24hr in | rain mn in | humidity % | barometer mb |
| 20260905040014 | 63 | 255 | 0.0 | 2.6 | 0.00 | 0.66 | 0.00 | 93 | 999.4 |
| 20260905034510 | 63 | 253 | 0.0 | 0.9 | 0.00 | 0.68 | 0.00 | 94 | 999.6 |
| 20260905033004 | 63 | 47 | 0.0 | 1.7 | 0.00 | 0.68 | 0.00 | 94 | 999.9 |
| 20260905031502 | 62 | 316 | 0.0 | 0.0 | 0.00 | 0.68 | 0.00 | 93 | 1000.2 |
| 20260905024559 | 63 | 316 | 0.0 | 0.9 | 0.00 | 0.69 | 0.68 | 93 | 1000.1 |
| 20260905023102 | 63 | 260 | 0.0 | 2.6 | 0.00 | 0.69 | 0.68 | 93 | 1000.4 |
| 20260905021554 | 64 | 285 | 0.0 | 1.7 | 0.00 | 0.69 | 0.68 | 93 | 1000.7 |
| 20260905020051 | 63 | 351 | 0.0 | 3.5 | 0.00 | 0.69 | 0.68 | 93 | 1000.9 |
| 20260905014549 | 63 | 259 | 0.0 | 2.6 | 0.00 | 0.69 | 0.68 | 93 | 1001.1 |
| 20260905013055 | 64 | 264 | 0.0 | 2.6 | 0.00 | 0.69 | 0.68 | 93 | 1001.5 |
| 20260905011545 | 64 | 272 | 0.0 | 0.9 | 0.00 | 0.69 | 0.68 | 93 | 1001.6 |
| 20260905010050 | 64 | 230 | 0.0 | 0.9 | 0.00 | 0.69 | 0.68 | 93 | 1001.7 |
| 20260905004542 | 65 | 262 | 0.0 | 0.9 | 0.00 | 0.69 | 0.68 | 93 | 1002.0 |
| 20260905003041 | 65 | 302 | 0.0 | 3.5 | 0.00 | 0.69 | 0.68 | 93 | 1002.1 |
| 20260905001540 | 65 | 304 | 0.0 | 2.6 | 0.00 | 0.69 | 0.68 | 93 | 1002.2 |
| 20260905000040 | 65 | 273 | 0.0 | 1.7 | 0.00 | 0.69 | 0.68 | 93 | 1002.2 |
| 20260904234545 | 65 | 259 | 0.0 | 1.7 | 0.00 | 0.69 | 0.68 | 93 | 1002.2 |
| 20260904233039 | 65 | 262 | 0.0 | 4.3 | 0.00 | 0.69 | 0.68 | 93 | 1002.1 |
| 20260904231538 | 66 | 257 | 0.0 | 2.6 | 0.00 | 0.69 | 0.68 | 93 | 1002.1 |
| 20260904230038 | 66 | 302 | 0.0 | 0.9 | 0.00 | 0.69 | 0.68 | 93 | 1002.1 |
| 20260904224542 | 66 | 260 | 0.0 | 0.9 | 0.00 | 0.69 | 0.68 | 93 | 1002.1 |
| 20260904223036 | 67 | 266 | 0.0 | 0.9 | 0.00 | 0.69 | 0.68 | 93 | 1002.1 |
| 20260904221536 | 67 | 330 | 0.0 | 2.6 | 0.00 | 0.69 | 0.68 | 93 | 1002.1 |
| 20260904220055 | 67 | 268 | 1.7 | 6.1 | 0.00 | 0.69 | 0.68 | 93 | 1002.1 |
| 20260904214537 | 67 | 236 | 3.5 | 6.1 | 0.00 | 0.71 | 0.68 | 93 | 1002.1 |
| 20260904213034 | 67 | 260 | 2.6 | 7.0 | 0.00 | 0.71 | 0.68 | 93 | 1002.3 |
| 20260904211536 | 68 | 260 | 2.6 | 7.8 | 0.00 | 0.71 | 0.68 | 93 | 1002.4 |
| 20260904210040 | 68 | 240 | 4.3 | 9.6 | 0.00 | 0.71 | 0.68 | 92 | 1002.6 |
| 20260904204527 | 69 | 221 | 4.3 | 10.4 | 0.00 | 0.72 | 0.68 | 92 | 1002.7 |
| 20260904203041 | 69 | 244 | 4.3 | 8.7 | 0.00 | 0.72 | 0.68 | 92 | 1002.8 |
| 20260904201525 | 68 | 241 | 2.6 | 7.0 | 0.00 | 0.72 | 0.68 | 92 | 1003.0 |
| 20260904200025 | 68 | 286 | 4.3 | 9.6 | 0.00 | 0.72 | 0.68 | 92 | 1003.2 |
| 20260904194524 | 68 | 214 | 4.3 | 7.8 | 0.00 | 0.72 | 0.68 | 93 | 1003.1 |
| 20260904193022 | 68 | 239 | 4.3 | 8.7 | 0.00 | 0.72 | 0.68 | 93 | 1003.2 |
| 20260904191521 | 69 | 240 | 5.2 | 8.7 | 0.00 | 0.72 | 0.68 | 92 | 1003.3 |
| 20260904190020 | 70 | 214 | 3.5 | 9.6 | 0.00 | 0.72 | 0.68 | 93 | 1003.2 |
| 20260904184524 | 69 | 257 | 4.3 | 7.0 | 0.00 | 0.72 | 0.68 | 93 | 1003.3 |
| 20260904183015 | 68 | 256 | 2.6 | 9.6 | 0.00 | 0.72 | 0.68 | 93 | 1003.4 |
| 20260904181511 | 68 | 245 | 4.3 | 7.8 | 0.00 | 0.72 | 0.68 | 94 | 1003.7 |
| 20260904180008 | 67 | 181 | 3.5 | 7.8 | 0.00 | 0.72 | 0.68 | 94 | 1003.8 |
| 20260904174506 | 67 | 206 | 0.0 | 4.3 | 0.00 | 0.72 | 0.68 | 94 | 1003.8 |
| 20260904173006 | 66 | 183 | 0.0 | 4.3 | 0.00 | 0.72 | 0.68 | 94 | 1004.0 |
| 20260904171501 | 66 | 180 | 1.7 | 4.3 | 0.00 | 0.72 | 0.68 | 94 | 1004.2 |
| 20260904170059 | 65 | 207 | 0.9 | 3.5 | 0.00 | 0.72 | 0.68 | 94 | 1004.3 |
| 20260904164559 | 66 | 172 | 0.9 | 5.2 | 0.00 | 0.72 | 0.68 | 93 | 1004.4 |
| 20260904163056 | 67 | 198 | 2.6 | 7.0 | 0.00 | 0.72 | 0.68 | 94 | 1004.6 |
| 20260904161612 | 67 | 215 | 2.6 | 10.4 | 0.00 | 0.72 | 0.68 | 94 | 1004.8 |
| 20260904160051 | 67 | 245 | 6.1 | 11.3 | 0.01 | 0.72 | 0.68 | 94 | 1005.1 |
| 20260904154550 | 67 | 237 | 7.0 | 10.4 | 0.02 | 0.72 | 0.68 | 95 | 1005.1 |
| 20260904153053 | 66 | 240 | 6.1 | 11.3 | 0.02 | 0.72 | 0.68 | 95 | 1005.2 |
| 20260904151545 | 65 | 186 | 4.3 | 12.2 | 0.09 | 0.72 | 0.68 | 94 | 1005.2 |
| 20260904150051 | 65 | 206 | 4.3 | 13.9 | 0.09 | 0.71 | 0.67 | 94 | 1005.4 |
| 20260904144556 | 65 | 158 | 6.1 | 15.6 | 0.08 | 0.70 | 0.66 | 94 | 1005.5 |
| 20260904143040 | 65 | 181 | 5.2 | 14.8 | 0.09 | 0.70 | 0.66 | 94 | 1005.7 |
| 20260904141539 | 65 | 178 | 7.8 | 14.8 | 0.02 | 0.63 | 0.59 | 94 | 1006.0 |
| 20260904140050 | 65 | 171 | 3.5 | 18.2 | 0.02 | 0.62 | 0.57 | 94 | 1006.3 |
| 20260904134537 | 65 | 161 | 7.0 | 19.1 | 0.09 | 0.62 | 0.57 | 94 | 1006.4 |
| 20260904133035 | 65 | 148 | 4.3 | 10.4 | 0.15 | 0.61 | 0.56 | 94 | 1006.5 |
| 20260904131534 | 65 | 186 | 5.2 | 14.8 | 0.16 | 0.61 | 0.56 | 94 | 1006.6 |
| 20260904130031 | 64 | 120 | 2.6 | 10.4 | 0.14 | 0.60 | 0.56 | 94 | 1006.7 |
| 20260904124528 | 65 | 154 | 8.7 | 16.5 | 0.06 | 0.51 | 0.47 | 94 | 1007.3 |
| 20260904123026 | 65 | 160 | 6.1 | 12.2 | 0.02 | 0.46 | 0.43 | 94 | 1007.4 |
| 20260904121524 | 65 | 171 | 6.1 | 12.2 | 0.03 | 0.46 | 0.42 | 94 | 1007.7 |
| 20260904120029 | 65 | 168 | 8.7 | 19.1 | 0.04 | 0.46 | 0.42 | 94 | 1007.8 |
| 20260904114525 | 65 | 184 | 7.0 | 13.9 | 0.05 | 0.46 | 0.42 | 94 | 1007.9 |
| 20260904113028 | 65 | 180 | 5.2 | 13.0 | 0.06 | 0.45 | 0.41 | 94 | 1008.2 |
| 20260904111517 | 65 | 97 | 4.3 | 11.3 | 0.05 | 0.43 | 0.39 | 94 | 1008.4 |
| 20260904110015 | 65 | 168 | 7.0 | 17.4 | 0.04 | 0.42 | 0.38 | 94 | 1008.5 |
| 20260904104514 | 64 | 136 | 4.3 | 11.3 | 0.04 | 0.41 | 0.37 | 94 | 1008.5 |
| 20260904103013 | 64 | 150 | 3.5 | 11.3 | 0.02 | 0.39 | 0.35 | 94 | 1008.5 |
| 20260904101511 | 64 | 191 | 6.1 | 12.2 | 0.02 | 0.38 | 0.34 | 94 | 1008.6 |
| 20260904100010 | 64 | 102 | 1.7 | 7.8 | 0.03 | 0.38 | 0.34 | 94 | 1008.8 |
| 20260904094523 | 64 | 115 | 1.7 | 9.6 | 0.04 | 0.37 | 0.33 | 94 | 1008.8 |
| 20260904093006 | 64 | 106 | 1.7 | 5.2 | 0.06 | 0.36 | 0.32 | 93 | 1009.1 |
| 20260904091503 | 64 | 134 | 0.9 | 5.2 | 0.11 | 0.36 | 0.32 | 93 | 1009.4 |
| 20260904090101 | 64 | 108 | 0.9 | 4.3 | 0.17 | 0.35 | 0.31 | 93 | 1009.9 |
| 20260904084559 | 64 | 103 | 0.9 | 7.0 | 0.23 | 0.33 | 0.28 | 93 | 1010.3 |
| 20260904083106 | 64 | 353 | 1.7 | 4.3 | 0.22 | 0.30 | 0.26 | 93 | 1010.3 |
| 20260904081555 | 64 | 165 | 1.7 | 6.1 | 0.18 | 0.25 | 0.21 | 93 | 1010.7 |
| 20260904080059 | 64 | 266 | 2.6 | 12.2 | 0.09 | 0.17 | 0.13 | 92 | 1010.8 |
| 20260904074555 | 65 | 183 | 5.2 | 11.3 | 0.03 | 0.10 | 0.06 | 92 | 1011.1 |
| 20260904073058 | 65 | 124 | 1.7 | 6.1 | 0.01 | 0.08 | 0.04 | 92 | 1011.3 |
| 20260904071547 | 65 | 122 | 2.6 | 10.4 | 0.00 | 0.07 | 0.03 | 92 | 1011.5 |
| 20260904070046 | 65 | 152 | 0.9 | 3.5 | 0.01 | 0.07 | 0.03 | 92 | 1011.8 |
| 20260904064543 | 65 | 100 | 1.7 | 6.1 | 0.01 | 0.07 | 0.03 | 92 | 1011.9 |
| 20260904063047 | 65 | 178 | 0.9 | 7.0 | 0.01 | 0.07 | 0.03 | 92 | 1012.2 |
| 20260904061540 | 65 | 129 | 0.9 | 8.7 | 0.01 | 0.07 | 0.03 | 92 | 1012.4 |
| 20260904060057 | 65 | 124 | 3.5 | 11.3 | 0.01 | 0.06 | 0.02 | 91 | 1012.7 |
| 20260904054540 | 66 | 198 | 5.2 | 13.9 | 0.01 | 0.06 | 0.02 | 91 | 1013.0 |
| 20260904053034 | 65 | 118 | 4.3 | 13.0 | 0.01 | 0.06 | 0.02 | 91 | 1013.1 |
| 20260904051526 | 65 | 131 | 3.5 | 7.8 | 0.01 | 0.06 | 0.02 | 91 | 1013.5 |
| 20260904050037 | 66 | 172 | 3.5 | 10.4 | 0.00 | 0.06 | 0.02 | 90 | 1013.8 |
| 20260904044522 | 65 | 163 | 3.5 | 10.4 | 0.00 | 0.06 | 0.02 | 89 | 1014.0 |
| 20260904043018 | 65 | 254 | 5.2 | 9.6 | 0.01 | 0.06 | 0.02 | 90 | 1014.3 |
| 20260904041519 | 65 | 151 | 2.6 | 6.1 | 0.01 | 0.06 | 0.02 | 90 | 1014.6 |